TimeCST,TemperatureF,Dew PointF,Humidity,Sea Level PressureIn,VisibilityMPH,Wind Direction,Wind SpeedMPH,Gust SpeedMPH,PrecipitationIn,Events,Conditions,WindDirDegrees,DateUTC
12:15 AM,28.9,27.9,96,30.16,7.0,NNE,5.8,-,N/A,,Clear,20,2012-11-05 06:15:00
12:35 AM,28.9,27.5,94,30.16,7.0,NE,5.8,-,N/A,,Clear,40,2012-11-05 06:35:00
12:55 AM,31.3,29.5,93,30.15,10.0,ENE,4.6,-,N/A,,Clear,60,2012-11-05 06:55:00
1:15 AM,30.2,28.4,93,30.15,10.0,ENE,4.6,-,N/A,,Clear,70,2012-11-05 07:15:00
1:35 AM,30.6,28.4,92,30.16,10.0,ENE,4.6,-,N/A,,Clear,70,2012-11-05 07:35:00
1:55 AM,27.5,25.9,94,30.17,7.0,Calm,Calm,-,N/A,,Clear,0,2012-11-05 07:55:00
2:15 AM,27.5,26.2,95,30.17,7.0,Calm,Calm,-,N/A,,Clear,0,2012-11-05 08:15:00
2:35 AM,27.5,26.6,96,30.16,7.0,NE,3.5,-,N/A,,Clear,50,2012-11-05 08:35:00
2:55 AM,28.2,27.0,95,30.15,10.0,ENE,4.6,-,N/A,,Clear,70,2012-11-05 08:55:00
3:15 AM,28.0,26.2,93,30.15,10.0,ENE,5.8,-,N/A,,Clear,60,2012-11-05 09:15:00
3:35 AM,25.0,23.2,93,30.15,7.0,Calm,Calm,-,N/A,,Clear,0,2012-11-05 09:35:00
3:55 AM,26.6,25.5,96,30.15,7.0,Calm,Calm,-,N/A,,Clear,0,2012-11-05 09:55:00
4:15 AM,26.1,24.6,94,30.15,7.0,ENE,3.5,-,N/A,,Clear,70,2012-11-05 10:15:00
4:35 AM,25.7,24.4,95,30.15,7.0,ENE,4.6,-,N/A,,Clear,70,2012-11-05 10:35:00
4:55 AM,25.3,23.9,94,30.15,7.0,ENE,4.6,-,N/A,,Clear,70,2012-11-05 10:55:00
5:15 AM,24.8,23.0,93,30.15,7.0,Calm,Calm,-,N/A,,Unknown,0,2012-11-05 11:15:00
5:35 AM,26.6,25.5,96,30.15,7.0,Calm,Calm,-,N/A,,Unknown,0,2012-11-05 11:35:00
5:55 AM,25.5,23.9,94,30.15,10.0,Calm,Calm,-,N/A,,Unknown,0,2012-11-05 11:55:00
6:15 AM,25.9,24.4,94,30.15,5.0,Calm,Calm,-,N/A,,Clear,0,2012-11-05 12:15:00
6:35 AM,27.1,26.1,96,30.15,4.0,Calm,Calm,-,N/A,,Clear,0,2012-11-05 12:35:00
6:55 AM,26.4,25.3,96,30.15,4.0,ENE,4.6,-,N/A,,Clear,70,2012-11-05 12:55:00
7:15 AM,30.0,28.9,96,30.15,7.0,ENE,4.6,-,N/A,,Clear,70,2012-11-05 13:15:00
7:35 AM,30.9,28.4,90,30.15,7.0,ENE,5.8,-,N/A,,Clear,70,2012-11-05 13:35:00
7:55 AM,32.0,29.3,90,30.15,7.0,ENE,6.9,-,N/A,,Clear,70,2012-11-05 13:55:00
8:15 AM,32.4,30.2,92,30.15,10.0,ENE,4.6,-,N/A,,Clear,70,2012-11-05 14:15:00
8:35 AM,34.5,31.5,89,30.15,10.0,ENE,8.1,-,N/A,,Clear,70,2012-11-05 14:35:00
8:55 AM,36.7,31.6,82,30.15,10.0,ENE,10.4,-,N/A,,Clear,70,2012-11-05 14:55:00
9:15 AM,37.9,30.2,74,30.15,10.0,East,11.5,-,N/A,,Clear,80,2012-11-05 15:15:00
9:35 AM,38.5,29.5,70,30.15,10.0,ENE,11.5,-,N/A,,Clear,70,2012-11-05 15:35:00
9:55 AM,39.4,28.4,65,30.15,10.0,East,11.5,-,N/A,,Clear,80,2012-11-05 15:55:00
10:15 AM,40.1,28.0,62,30.15,10.0,ENE,10.4,16.1,N/A,,Clear,70,2012-11-05 16:15:00
10:35 AM,41.0,28.9,62,30.15,10.0,East,8.1,-,N/A,,Clear,100,2012-11-05 16:35:00
10:55 AM,41.4,28.4,60,30.15,10.0,ESE,9.2,-,N/A,,Clear,110,2012-11-05 16:55:00
11:15 AM,42.1,28.6,59,30.14,10.0,East,4.6,-,N/A,,Clear,90,2012-11-05 17:15:00
11:35 AM,41.7,28.2,59,30.13,10.0,ENE,5.8,-,N/A,,Unknown,70,2012-11-05 17:35:00
11:55 AM,43.5,28.8,56,30.12,10.0,ESE,8.1,-,N/A,,Unknown,120,2012-11-05 17:55:00
12:15 PM,44.1,29.5,57,30.11,10.0,East,5.8,-,N/A,,Clear,80,2012-11-05 18:15:00
12:35 PM,43.3,29.5,58,30.10,7.0,NNE,5.8,-,N/A,,Clear,30,2012-11-05 18:35:00
12:55 PM,44.2,29.5,56,30.10,10.0,NNE,6.9,-,N/A,,Clear,30,2012-11-05 18:55:00
1:15 PM,43.9,29.3,57,30.10,10.0,ENE,6.9,-,N/A,,Clear,70,2012-11-05 19:15:00
1:35 PM,44.8,30.0,56,30.09,7.0,NNE,5.8,-,N/A,,Clear,20,2012-11-05 19:35:00
1:55 PM,44.8,29.3,55,30.09,10.0,North,3.5,-,N/A,,Clear,360,2012-11-05 19:55:00
2:15 PM,45.0,29.5,55,30.08,10.0,ENE,4.6,-,N/A,,Clear,70,2012-11-05 20:15:00
2:35 PM,44.8,29.1,54,30.08,10.0,ENE,4.6,-,N/A,,Clear,60,2012-11-05 20:35:00
2:55 PM,45.5,29.1,53,30.08,5.0,East,4.6,-,N/A,,Haze,80,2012-11-05 20:55:00
3:15 PM,45.1,29.1,54,30.08,10.0,East,4.6,-,N/A,,Clear,80,2012-11-05 21:15:00
3:35 PM,44.6,28.4,53,30.09,7.0,ENE,4.6,-,N/A,,Clear,60,2012-11-05 21:35:00
3:55 PM,44.2,29.7,57,30.09,10.0,NE,5.8,-,N/A,,Clear,50,2012-11-05 21:55:00
4:15 PM,43.2,29.7,59,30.09,3.0,NNE,4.6,-,N/A,,Haze,30,2012-11-05 22:15:00
4:35 PM,41.7,29.3,61,30.09,2.5,NE,5.8,-,N/A,,Haze,40,2012-11-05 22:35:00
4:55 PM,41.0,29.3,63,30.09,3.0,NE,4.6,-,N/A,,Haze,40,2012-11-05 22:55:00
5:15 PM,39.0,28.8,67,30.09,2.5,NE,4.6,-,N/A,,Haze,50,2012-11-05 23:15:00
5:35 PM,35.8,28.4,75,30.10,2.5,NNE,9.2,-,N/A,,Haze,20,2012-11-05 23:35:00
5:55 PM,34.7,29.3,81,30.10,10.0,NNE,8.1,-,N/A,,Clear,30,2012-11-05 23:55:00
6:15 PM,34.0,29.1,82,30.11,10.0,NNE,8.1,-,N/A,,Clear,20,2012-11-06 00:15:00
6:35 PM,34.2,29.1,82,30.11,7.0,NE,6.9,-,N/A,,Clear,40,2012-11-06 00:35:00
6:55 PM,35.6,28.9,77,30.11,5.0,NE,3.5,-,N/A,,Haze,50,2012-11-06 00:55:00
7:15 PM,34.5,28.4,78,30.10,4.0,NE,5.8,-,N/A,Snow,Light Snow,50,2012-11-06 01:15:00
7:35 PM,33.8,27.9,79,30.10,7.0,NE,3.5,-,N/A,,Clear,50,2012-11-06 01:35:00
7:55 PM,33.3,27.9,81,30.10,4.0,NE,5.8,-,N/A,Snow,Light Snow,40,2012-11-06 01:55:00
8:15 PM,34.2,28.2,79,30.10,3.0,NE,5.8,-,N/A,Snow,Light Snow,40,2012-11-06 02:15:00
8:35 PM,34.3,28.0,78,30.10,4.0,NE,5.8,-,N/A,Snow,Light Snow,50,2012-11-06 02:35:00
8:55 PM,34.3,28.0,78,30.10,5.0,ENE,4.6,-,N/A,Snow,Light Snow,60,2012-11-06 02:55:00
9:15 PM,32.9,27.5,81,30.10,4.0,NE,4.6,-,N/A,Snow,Light Snow,40,2012-11-06 03:15:00
9:35 PM,32.9,27.5,81,30.10,10.0,ENE,4.6,-,N/A,,Unknown,70,2012-11-06 03:35:00
9:55 PM,32.4,27.5,82,30.10,5.0,NE,4.6,-,N/A,,Haze,50,2012-11-06 03:55:00
10:15 PM,32.9,27.5,81,30.08,7.0,NE,3.5,-,N/A,,Clear,50,2012-11-06 04:15:00
10:35 PM,32.7,27.3,81,30.08,10.0,ENE,3.5,-,N/A,,Clear,70,2012-11-06 04:35:00
10:55 PM,32.0,27.1,82,30.08,7.0,ENE,4.6,-,N/A,,Clear,70,2012-11-06 04:55:00
11:15 PM,32.0,26.8,81,30.07,10.0,East,3.5,-,N/A,,Unknown,80,2012-11-06 05:15:00
11:35 PM,31.1,26.8,84,30.07,7.0,East,3.5,-,N/A,,Unknown,80,2012-11-06 05:35:00
11:55 PM,32.0,27.0,82,30.07,7.0,East,3.5,-,N/A,,Unknown,80,2012-11-06 05:55:00